Dades meteomassalio
Diari Summary for Juliol 7, 2017 Units:  Metric    English   Both
« Previous Day
Next Day »
Diari Semanal Mensual Anual Personalitzat
  Maxima: Minima: Mijana:
Temperatura: 32.7 °C 21.0 °C 26.8 °C
Rosada: 16.9 °C 7.4 °C 13.5 °C
Humitat: 73 % 21 % 48 %
Velocitat del vent: 42.6 km/h 0.0 km/h 8 km/h
Racha vent: 42.6 km/h - -
Vent:- - SE
Pressio: 1017.8 hPa 1013.4 hPa -
Pluja: 0.0 mm    
Historical Graphs
 
 
Tabular Data for Juliol 7, 2017
Time Temperature Dew Point Pressure Wind Wind Speed Wind Gust Humidity Rainfall Rate (Hourly) solar Conditions
00:01 23.6 °C 16.1 °C 1016.5 hPa Calm     63 % 0.0 mm 0.0 W/m2 CLR
00:06 23.5 °C 16.1 °C 1016.5 hPa Calm     63 % 0.0 mm 0.0 W/m2 CLR
00:11 23.4 °C 16.2 °C 1016.5 hPa Calm     64 % 0.0 mm 0.0 W/m2 CLR
00:16 23.3 °C 16.1 °C 1016.5 hPa Calm     64 % 0.0 mm 0.0 W/m2 CLR
00:21 23.3 °C 16.1 °C 1016.5 hPa Calm     64 % 0.0 mm 0.0 W/m2 CLR
00:26 23.3 °C 16.1 °C 1016.5 hPa Calm     64 % 0.0 mm 0.0 W/m2 CLR
00:31 23.2 °C 16.1 °C 1016.5 hPa Calm     64 % 0.0 mm 0.0 W/m2 CLR
00:36 23.2 °C 16.2 °C 1016.5 hPa Calm     65 % 0.0 mm 0.0 W/m2 CLR
00:41 23.2 °C 16.2 °C 1016.5 hPa Calm     65 % 0.0 mm 0.0 W/m2 CLR
00:46 23.1 °C 16.2 °C 1016.8 hPa Calm     65 % 0.0 mm 0.0 W/m2 CLR
00:51 23.1 °C 16.2 °C 1016.8 hPa Calm     65 % 0.0 mm 0.0 W/m2 CLR
00:56 23.0 °C 16.1 °C 1016.8 hPa Calm     65 % 0.0 mm 0.0 W/m2 CLR
01:01 22.9 °C 16.2 °C 1017.2 hPa Calm     66 % 0.0 mm 0.0 W/m2 CLR
01:06 22.8 °C 15.9 °C 1017.2 hPa Calm     65 % 0.0 mm 0.0 W/m2 CLR
01:11 22.6 °C 15.9 °C 1017.2 hPa Calm     66 % 0.0 mm 0.0 W/m2 CLR
01:16 22.5 °C 15.8 °C 1017.2 hPa Calm     66 % 0.0 mm 0.0 W/m2 CLR
01:21 22.3 °C 15.8 °C 1017.5 hPa Calm     67 % 0.0 mm 0.0 W/m2 CLR
01:26 22.2 °C 15.8 °C 1017.2 hPa Calm     67 % 0.0 mm 0.0 W/m2 CLR
01:31 22.1 °C 15.7 °C 1017.2 hPa Calm     67 % 0.0 mm 0.0 W/m2 CLR
01:37 22.1 °C 15.9 °C 1017.5 hPa Calm     68 % 0.0 mm 0.0 W/m2 CLR
01:42 21.9 °C 15.8 °C 1017.5 hPa Calm     68 % 0.0 mm 0.0 W/m2 CLR
01:47 21.9 °C 15.9 °C 1017.5 hPa Calm     69 % 0.0 mm 0.0 W/m2 CLR
01:52 21.9 °C 15.9 °C 1017.5 hPa Calm     69 % 0.0 mm 0.0 W/m2 CLR
01:56 21.9 °C 15.9 °C 1017.5 hPa Calm     69 % 0.0 mm 0.0 W/m2 CLR
02:02 21.9 °C 15.9 °C 1017.5 hPa Calm     69 % 0.0 mm 0.0 W/m2 CLR
02:07 21.9 °C 15.9 °C 1017.5 hPa Calm     69 % 0.0 mm 0.0 W/m2 CLR
02:12 21.8 °C 15.9 °C 1017.2 hPa Calm     69 % 0.0 mm 0.0 W/m2 CLR
02:17 21.8 °C 15.8 °C 1017.2 hPa Calm     69 % 0.0 mm 0.0 W/m2 CLR
02:22 21.6 °C 15.7 °C 1017.5 hPa Calm     69 % 0.0 mm 0.0 W/m2 CLR
02:27 21.5 °C 15.8 °C 1017.5 hPa Calm     70 % 0.0 mm 0.0 W/m2 CLR
02:32 21.4 °C 15.7 °C 1017.5 hPa Calm     70 % 0.0 mm 0.0 W/m2 CLR
02:37 21.3 °C 15.6 °C 1017.5 hPa Calm     70 % 0.0 mm 0.0 W/m2 CLR
02:42 21.2 °C 15.8 °C 1017.2 hPa Calm     71 % 0.0 mm 0.0 W/m2 CLR
02:47 21.2 °C 15.8 °C 1017.5 hPa Calm     71 % 0.0 mm 0.0 W/m2 CLR
02:52 21.2 °C 15.7 °C 1017.5 hPa Calm     71 % 0.0 mm 0.0 W/m2 CLR
02:57 21.1 °C 15.6 °C 1017.5 hPa Calm     71 % 0.0 mm 0.0 W/m2 CLR
03:02 21.1 °C 15.8 °C 1017.5 hPa Calm     72 % 0.0 mm 0.0 W/m2 CLR
03:07 21.0 °C 15.8 °C 1017.5 hPa Calm     72 % 0.0 mm 0.0 W/m2 CLR
03:12 21.0 °C 15.8 °C 1017.8 hPa WSW 7.4 km/h 7.4 km/h 72 % 0.0 mm 0.0 W/m2 CLR
03:17 21.1 °C 16.1 °C 1017.8 hPa SW 5.6 km/h 5.6 km/h 73 % 0.0 mm 0.0 W/m2 CLR
03:27 21.3 °C 15.8 °C 1017.8 hPa SSW 5.6 km/h 5.6 km/h 71 % 0.0 mm 0.0 W/m2 CLR
03:32 21.3 °C 15.8 °C 1017.5 hPa Calm     71 % 0.0 mm 0.0 W/m2 CLR
03:37 21.3 °C 15.8 °C 1017.5 hPa Calm     71 % 0.0 mm 0.0 W/m2 CLR
03:42 21.4 °C 16.2 °C 1017.5 hPa SW 5.6 km/h 5.6 km/h 72 % 0.0 mm 0.0 W/m2 CLR
03:47 21.7 °C 16.2 °C 1017.5 hPa Calm     71 % 0.0 mm 0.0 W/m2 CLR
03:53 21.7 °C 16.2 °C 1017.5 hPa Calm     71 % 0.0 mm 0.0 W/m2 CLR
03:58 21.7 °C 15.9 °C 1017.5 hPa Calm     70 % 0.0 mm 0.0 W/m2 CLR
04:03 21.6 °C 16.1 °C 1017.8 hPa SW 8.0 km/h 8.0 km/h 71 % 0.0 mm 0.0 W/m2 CLR
04:08 21.7 °C 16.2 °C 1017.5 hPa Calm     71 % 0.0 mm 0.0 W/m2 CLR
04:13 21.8 °C 16.3 °C 1017.5 hPa Calm     71 % 0.0 mm 0.0 W/m2 CLR
04:18 21.8 °C 16.1 °C 1017.5 hPa Calm     70 % 0.0 mm 0.0 W/m2 CLR
04:23 21.7 °C 16.0 °C 1017.5 hPa Calm     70 % 0.0 mm 0.0 W/m2 CLR
04:28 21.6 °C 16.1 °C 1017.5 hPa Calm     71 % 0.0 mm 0.0 W/m2 CLR
04:33 21.7 °C 15.9 °C 1017.5 hPa Calm     70 % 0.0 mm 0.0 W/m2 CLR
04:38 21.6 °C 15.9 °C 1017.5 hPa Calm     70 % 0.0 mm 0.0 W/m2 CLR
04:43 21.7 °C 16.0 °C 1017.5 hPa Calm     70 % 0.0 mm 0.0 W/m2 CLR
04:48 21.7 °C 16.0 °C 1017.2 hPa Calm     70 % 0.0 mm 0.0 W/m2 CLR
04:53 21.7 °C 16.2 °C 1017.2 hPa Calm     71 % 0.0 mm 0.0 W/m2 CLR
04:58 21.8 °C 16.1 °C 1017.2 hPa NNE 3.2 km/h 3.2 km/h 70 % 0.0 mm 0.0 W/m2 CLR
05:03 21.7 °C 15.9 °C 1017.2 hPa NW 11.1 km/h 11.1 km/h 70 % 0.0 mm 0.0 W/m2 CLR
05:08 21.7 °C 16.2 °C 1017.2 hPa NW 5.6 km/h   71 % 0.0 mm 0.0 W/m2 CLR
05:13 21.8 °C 16.3 °C 1017.2 hPa WSW 3.7 km/h   71 % 0.0 mm 0.0 W/m2 CLR
05:18 21.9 °C 16.4 °C 1017.5 hPa SSW 8.0 km/h 8.0 km/h 71 % 0.0 mm 0.0 W/m2 CLR
05:23 22.0 °C 16.3 °C 1017.2 hPa Calm     70 % 0.0 mm 0.0 W/m2 CLR
05:28 22.1 °C 16.4 °C 1016.8 hPa ENE 3.7 km/h 3.7 km/h 70 % 0.0 mm 0.0 W/m2 CLR
05:33 22.1 °C 16.2 °C 1016.8 hPa Calm     69 % 0.0 mm 0.0 W/m2 CLR
05:38 21.9 °C 16.2 °C 1017.2 hPa Calm     70 % 0.0 mm 0.0 W/m2 CLR
05:43 21.7 °C 16.0 °C 1016.8 hPa Calm     70 % 0.0 mm 0.0 W/m2 CLR
05:48 21.6 °C 16.1 °C 1016.5 hPa Calm     71 % 0.0 mm 0.0 W/m2 CLR
05:53 21.6 °C 16.1 °C 1016.5 hPa Calm     71 % 0.0 mm 0.0 W/m2 CLR
05:55 21.6 °C 16.1 °C 1016.8 hPa Calm     71 % 0.0 mm 0.0 W/m2 CLR
06:00 21.7 °C 16.2 °C 1016.5 hPa Calm     71 % 0.0 mm 0.0 W/m2 CLR
06:05 21.7 °C 16.2 °C 1016.5 hPa SSE 5.6 km/h   71 % 0.0 mm 0.0 W/m2 CLR
06:10 21.7 °C 16.0 °C 1016.1 hPa Calm     70 % 0.0 mm 0.0 W/m2 CLR
06:15 21.7 °C 15.9 °C 1016.1 hPa Calm     70 % 0.0 mm 0.0 W/m2 CLR
06:20 21.7 °C 16.0 °C 1016.1 hPa Calm     70 % 0.0 mm 0.0 W/m2 CLR
06:25 21.7 °C 15.9 °C 1016.1 hPa Calm   0.5 km/h 70 % 0.0 mm 0.0 W/m2 OVC
06:30 21.7 °C 15.9 °C 1016.1 hPa Calm     70 % 0.0 mm 0.0 W/m2 OVC
06:35 21.6 °C 15.9 °C 1016.1 hPa Calm     70 % 0.0 mm 0.0 W/m2 OVC
06:40 21.6 °C 15.9 °C 1016.1 hPa Calm     70 % 0.0 mm 0.0 W/m2 OVC
06:45 21.5 °C 15.8 °C 1016.1 hPa Calm     70 % 0.0 mm 7.0 W/m2 OVC
06:50 21.4 °C 15.9 °C 1016.1 hPa Calm     71 % 0.0 mm 11.0 W/m2 BKN
06:55 21.4 °C 15.9 °C 1016.1 hPa Calm     71 % 0.0 mm 11.0 W/m2 BKN
07:00 21.4 °C 15.9 °C 1016.1 hPa Calm     71 % 0.0 mm 11.0 W/m2 BKN
07:05 21.5 °C 16.0 °C 1015.8 hPa Calm     71 % 0.0 mm 12.0 W/m2 BKN
07:10 21.6 °C 16.1 °C 1015.8 hPa Calm     71 % 0.0 mm 21.0 W/m2 BKN
07:15 21.6 °C 15.9 °C 1015.8 hPa Calm     70 % 0.0 mm 37.0 W/m2 BKN
07:20 21.7 °C 15.9 °C 1015.8 hPa Calm     70 % 0.0 mm 47.0 W/m2 SCT
07:25 21.6 °C 15.9 °C 1016.1 hPa WNW 5.6 km/h 5.6 km/h 70 % 0.0 mm 49.0 W/m2 SCT
07:30 21.9 °C 16.0 °C 1016.1 hPa WNW 5.6 km/h 5.6 km/h 69 % 0.0 mm 53.0 W/m2 SCT
07:35 22.3 °C 16.1 °C 1016.1 hPa NW 9.7 km/h 9.7 km/h 68 % 0.0 mm 56.0 W/m2 SCT
07:40 22.5 °C 15.8 °C 1016.5 hPa NW 7.4 km/h 7.4 km/h 66 % 0.0 mm 56.0 W/m2 SCT
07:45 22.8 °C 15.8 °C 1016.5 hPa NW 3.7 km/h 3.7 km/h 65 % 0.0 mm 56.0 W/m2 SCT
07:50 22.9 °C 15.9 °C 1016.5 hPa Calm     65 % 0.0 mm 62.0 W/m2 SCT
07:55 23.0 °C 16.3 °C 1016.5 hPa Calm     66 % 0.0 mm 60.0 W/m2 SCT
08:00 22.9 °C 16.3 °C 1016.5 hPa Calm     66 % 0.0 mm 56.0 W/m2 SCT
08:05 22.9 °C 15.9 °C 1016.5 hPa Calm     65 % 0.0 mm 65.0 W/m2 SCT
08:10 22.9 °C 15.9 °C 1016.5 hPa Calm     65 % 0.0 mm 83.0 W/m2 SCT
08:16 22.9 °C 16.3 °C 1016.5 hPa Calm     66 % 0.0 mm 116.0 W/m2 FEW
08:21 23.0 °C 16.3 °C 1016.8 hPa Calm     66 % 0.0 mm 141.0 W/m2 CLR
08:26 23.1 °C 16.1 °C 1016.8 hPa Calm     65 % 0.0 mm 91.0 W/m2 CLR
08:31 23.2 °C 16.1 °C 1016.8 hPa Calm     64 % 0.0 mm 83.0 W/m2 CLR
08:36 23.3 °C 16.1 °C 1016.8 hPa Calm     64 % 0.0 mm 93.0 W/m2 CLR
08:41 23.3 °C 16.3 °C 1016.8 hPa Calm     65 % 0.0 mm 111.0 W/m2 CLR
08:46 23.3 °C 16.4 °C 1017.2 hPa Calm     65 % 0.0 mm 281.0 W/m2 CLR
08:51 23.6 °C 16.4 °C 1017.2 hPa WSW 8.0 km/h 8.0 km/h 64 % 0.0 mm 225.0 W/m2 CLR
08:56 24.0 °C 16.3 °C 1016.8 hPa WSW 7.4 km/h 7.4 km/h 62 % 0.0 mm 260.0 W/m2 CLR
09:01 24.3 °C 16.3 °C 1016.8 hPa Calm     61 % 0.0 mm 323.0 W/m2 CLR
09:06 24.7 °C 16.4 °C 1016.8 hPa Calm     60 % 0.0 mm 315.0 W/m2 CLR
09:11 25.0 °C 16.2 °C 1016.5 hPa Calm     58 % 0.0 mm 276.0 W/m2 CLR
09:16 25.5 °C 16.9 °C 1016.5 hPa NE 5.6 km/h 5.6 km/h 59 % 0.0 mm 279.0 W/m2 CLR
09:21 25.7 °C 16.6 °C 1016.5 hPa Calm     57 % 0.0 mm 294.0 W/m2 CLR
09:26 25.8 °C 16.3 °C 1016.5 hPa Calm     56 % 0.0 mm 271.0 W/m2 CLR
09:31 25.8 °C 16.1 °C 1016.8 hPa Calm     55 % 0.0 mm 250.0 W/m2 CLR
09:36 25.7 °C 16.0 °C 1016.5 hPa Calm     55 % 0.0 mm 297.0 W/m2 CLR
09:41 25.8 °C 16.1 °C 1016.8 hPa Calm     55 % 0.0 mm 250.0 W/m2 CLR
09:46 26.0 °C 15.9 °C 1016.8 hPa Calm     54 % 0.0 mm 236.0 W/m2 CLR
09:51 26.3 °C 16.2 °C 1016.5 hPa Calm     54 % 0.0 mm 285.0 W/m2 CLR
09:56 26.3 °C 16.3 °C 1016.5 hPa Calm     54 % 0.0 mm 371.0 W/m2 CLR
10:01 26.6 °C 16.2 °C 1016.5 hPa Calm     53 % 0.0 mm 352.0 W/m2 CLR
10:06 26.9 °C 16.2 °C 1016.5 hPa Calm     52 % 0.0 mm 383.0 W/m2 CLR
10:11 27.4 °C 16.3 °C 1016.5 hPa Calm     51 % 0.0 mm 308.0 W/m2 CLR
10:16 27.6 °C 15.9 °C 1016.5 hPa Calm     49 % 0.0 mm 343.0 W/m2 CLR
10:21 27.7 °C 15.7 °C 1016.5 hPa Calm     48 % 0.0 mm 450.0 W/m2 CLR
10:26 28.1 °C 16.0 °C 1016.5 hPa Calm     48 % 0.0 mm 534.0 W/m2 CLR
10:31 28.5 °C 15.8 °C 1016.5 hPa Calm     46 % 0.0 mm 652.0 W/m2 CLR
10:36 29.1 °C 15.6 °C 1016.5 hPa Calm     44 % 0.0 mm 584.0 W/m2 CLR
10:41 29.5 °C 15.2 °C 1016.1 hPa Calm   1.4 km/h 42 % 0.0 mm 652.0 W/m2 CLR
10:46 29.6 °C 14.9 °C 1016.1 hPa NE 5.6 km/h 5.6 km/h 41 % 0.0 mm 522.0 W/m2 CLR
10:51 29.8 °C 15.1 °C 1016.1 hPa NE 3.2 km/h 3.2 km/h 41 % 0.0 mm 686.0 W/m2 CLR
10:56 30.1 °C 15.0 °C 1016.1 hPa NE 9.3 km/h 9.3 km/h 40 % 0.0 mm 689.0 W/m2 CLR
11:01 30.2 °C 14.7 °C 1016.1 hPa NE 5.6 km/h 5.6 km/h 39 % 0.0 mm 624.0 W/m2 CLR
11:06 30.3 °C 14.0 °C 1016.1 hPa Calm     37 % 0.0 mm 631.0 W/m2 CLR
11:11 30.6 °C 14.3 °C 1016.1 hPa NE 7.4 km/h 7.4 km/h 37 % 0.0 mm 652.0 W/m2 CLR
11:16 30.7 °C 13.9 °C 1016.1 hPa NNE 5.6 km/h 5.6 km/h 36 % 0.0 mm 624.0 W/m2 CLR
11:21 31.0 °C 13.7 °C 1016.1 hPa NE 1.9 km/h 1.9 km/h 35 % 0.0 mm 584.0 W/m2 CLR
11:27 31.3 °C 13.6 °C 1016.1 hPa ENE 11.1 km/h 11.1 km/h 34 % 0.0 mm 547.0 W/m2 CLR
11:32 31.3 °C 12.7 °C 1016.1 hPa East 11.1 km/h 11.1 km/h 32 % 0.0 mm 577.0 W/m2 CLR
11:37 31.3 °C 12.2 °C 1015.8 hPa ESE 16.1 km/h 16.1 km/h 31 % 0.0 mm 636.0 W/m2 CLR
11:42 31.6 °C 11.3 °C 1015.8 hPa SE 24.1 km/h 24.1 km/h 29 % 0.0 mm 603.0 W/m2 CLR
11:47 31.7 °C 10.9 °C 1016.1 hPa ESE 24.1 km/h 24.1 km/h 28 % 0.0 mm 531.0 W/m2 CLR
11:52 31.7 °C 10.9 °C 1015.8 hPa SE 25.9 km/h 25.9 km/h 28 % 0.0 mm 497.0 W/m2 CLR
11:57 31.7 °C 11.4 °C 1015.8 hPa ESE 22.5 km/h 22.5 km/h 29 % 0.0 mm 496.0 W/m2 CLR
12:02 31.7 °C 11.4 °C 1015.8 hPa East 22.5 km/h 22.5 km/h 29 % 0.0 mm 619.0 W/m2 CLR
12:07 31.8 °C 11.0 °C 1015.8 hPa East 22.2 km/h 22.2 km/h 28 % 0.0 mm 698.0 W/m2 CLR
12:12 31.8 °C 10.4 °C 1015.8 hPa East 24.1 km/h 24.1 km/h 27 % 0.0 mm 494.0 W/m2 CLR
12:17 31.9 °C 11.1 °C 1015.8 hPa ESE 18.5 km/h 18.5 km/h 28 % 0.0 mm 563.0 W/m2 CLR
12:22 32.1 °C 10.7 °C 1015.8 hPa ESE 20.4 km/h 21.9 km/h 27 % 0.0 mm 724.0 W/m2 CLR
12:27 32.2 °C 11.4 °C 1015.8 hPa East 19.3 km/h 19.3 km/h 28 % 0.0 mm 682.0 W/m2 CLR
12:32 32.3 °C 10.9 °C 1015.5 hPa East 18.5 km/h 18.5 km/h 27 % 0.0 mm 568.0 W/m2 CLR
12:37 31.9 °C 10.6 °C 1015.5 hPa ESE 29.6 km/h 29.6 km/h 27 % 0.0 mm 526.0 W/m2 CLR
12:42 31.7 °C 10.4 °C 1015.8 hPa SE 29.6 km/h 29.6 km/h 27 % 0.0 mm 522.0 W/m2 CLR
12:47 31.7 °C 11.5 °C 1015.5 hPa ESE 24.1 km/h 24.1 km/h 29 % 0.0 mm 564.0 W/m2 CLR
12:52 32.1 °C 11.3 °C 1015.5 hPa ESE 25.9 km/h 25.9 km/h 28 % 0.0 mm 584.0 W/m2 CLR
12:57 32.0 °C 11.2 °C 1015.5 hPa East 31.5 km/h 31.5 km/h 28 % 0.0 mm 585.0 W/m2 CLR
13:02 31.8 °C 11.1 °C 1015.5 hPa East 31.5 km/h 31.5 km/h 28 % 0.0 mm 613.0 W/m2 CLR
13:07 31.5 °C 11.3 °C 1015.5 hPa ESE 27.8 km/h 27.8 km/h 29 % 0.0 mm 522.0 W/m2 CLR
13:12 31.5 °C 11.8 °C 1015.8 hPa ESE 29.6 km/h 29.6 km/h 30 % 0.0 mm 515.0 W/m2 CLR
13:17 31.7 °C 11.4 °C 1015.8 hPa ESE 27.8 km/h 27.8 km/h 29 % 0.0 mm 531.0 W/m2 CLR
13:22 31.6 °C 11.9 °C 1015.8 hPa SE 27.4 km/h 27.4 km/h 30 % 0.0 mm 501.0 W/m2 CLR
13:27 31.7 °C 11.4 °C 1015.8 hPa SE 20.4 km/h 20.4 km/h 29 % 0.0 mm 464.0 W/m2 CLR
13:32 31.6 °C 11.4 °C 1015.5 hPa SSE 29.6 km/h 29.6 km/h 29 % 0.0 mm 494.0 W/m2 CLR
13:37 31.6 °C 11.3 °C 1015.5 hPa ESE 25.9 km/h 25.9 km/h 29 % 0.0 mm 476.0 W/m2 CLR
13:42 31.6 °C 11.4 °C 1015.5 hPa ESE 27.8 km/h 27.8 km/h 29 % 0.0 mm 452.0 W/m2 CLR
13:48 31.8 °C 10.5 °C 1015.5 hPa SE 33.3 km/h 33.3 km/h 27 % 0.0 mm 457.0 W/m2 CLR
13:53 32.3 °C 10.3 °C 1015.5 hPa SSE 29.0 km/h 29.0 km/h 26 % 0.0 mm 512.0 W/m2 CLR
13:58 32.6 °C 9.4 °C 1015.5 hPa SE 31.5 km/h 31.5 km/h 24 % 0.0 mm 517.0 W/m2 CLR
14:03 32.5 °C 8.7 °C 1015.5 hPa SE 33.3 km/h 33.3 km/h 23 % 0.0 mm 584.0 W/m2 CLR
14:08 32.7 °C 9.5 °C 1015.5 hPa ESE 31.5 km/h 31.5 km/h 24 % 0.0 mm 483.0 W/m2 CLR
14:13 32.3 °C 9.1 °C 1015.5 hPa SE 38.9 km/h 38.9 km/h 24 % 0.0 mm 448.0 W/m2 CLR
14:18 32.0 °C 8.9 °C 1015.1 hPa SE 31.5 km/h 31.5 km/h 24 % 0.0 mm 397.0 W/m2 CLR
14:23 31.8 °C 8.8 °C 1015.1 hPa SE 33.3 km/h 33.3 km/h 24 % 0.0 mm 415.0 W/m2 CLR
14:28 31.7 °C 9.3 °C 1015.5 hPa SSE 29.6 km/h 29.6 km/h 25 % 0.0 mm 517.0 W/m2 CLR
14:33 31.7 °C 8.7 °C 1015.8 hPa SE 31.5 km/h 31.5 km/h 24 % 0.0 mm 536.0 W/m2 CLR
14:38 31.8 °C 8.1 °C 1015.8 hPa ESE 29.6 km/h 29.6 km/h 23 % 0.0 mm 543.0 W/m2 CLR
14:43 31.8 °C 8.8 °C 1015.8 hPa SSE 25.9 km/h 25.9 km/h 24 % 0.0 mm 547.0 W/m2 CLR
14:48 32.1 °C 8.4 °C 1015.8 hPa SSE 24.1 km/h 24.1 km/h 23 % 0.0 mm 563.0 W/m2 CLR
14:53 32.2 °C 7.8 °C 1015.8 hPa SSE 25.9 km/h 25.9 km/h 22 % 0.0 mm 548.0 W/m2 CLR
14:58 32.0 °C 8.3 °C 1015.8 hPa SE 27.8 km/h 27.8 km/h 23 % 0.0 mm 664.0 W/m2 CLR
15:03 32.3 °C 8.5 °C 1015.8 hPa SE 24.1 km/h 24.1 km/h 23 % 0.0 mm 540.0 W/m2 CLR
15:08 32.4 °C 8.0 °C 1015.8 hPa SSE 31.5 km/h 31.5 km/h 22 % 0.0 mm 434.0 W/m2 CLR
15:13 32.6 °C 8.1 °C 1016.1 hPa SE 19.3 km/h 19.3 km/h 22 % 0.0 mm 529.0 W/m2 CLR
15:18 32.6 °C 7.4 °C 1016.1 hPa ESE 35.2 km/h 35.2 km/h 21 % 0.0 mm 367.0 W/m2 CLR
15:23 32.3 °C 7.9 °C 1016.1 hPa SE 31.5 km/h 31.5 km/h 22 % 0.0 mm 287.0 W/m2 CLR
15:28 32.1 °C 7.7 °C 1016.5 hPa SE 33.3 km/h 33.3 km/h 22 % 0.0 mm 227.0 W/m2 CLR
15:33 31.9 °C 8.2 °C 1016.5 hPa SE 25.9 km/h 25.9 km/h 23 % 0.0 mm 174.0 W/m2 CLR
15:38 31.7 °C 8.1 °C 1016.5 hPa South 20.4 km/h 20.4 km/h 23 % 0.0 mm 139.0 W/m2 CLR
15:43 31.7 °C 8.0 °C 1016.5 hPa SE 16.7 km/h 16.7 km/h 23 % 0.0 mm 118.0 W/m2 CLR
15:48 31.6 °C 8.6 °C 1016.5 hPa SSE 14.8 km/h 14.8 km/h 24 % 0.0 mm 100.0 W/m2 CLR
15:53 31.5 °C 8.5 °C 1016.5 hPa SSE 13.0 km/h 13.0 km/h 24 % 0.0 mm 98.0 W/m2 CLR
15:58 31.4 °C 8.4 °C 1016.5 hPa ESE 11.1 km/h 11.1 km/h 24 % 0.0 mm 116.0 W/m2 CLR
16:03 31.3 °C 8.3 °C 1016.5 hPa SE 9.3 km/h 9.3 km/h 24 % 0.0 mm 148.0 W/m2 CLR
16:08 31.3 °C 8.3 °C 1016.5 hPa SE 14.8 km/h 14.8 km/h 24 % 0.0 mm 171.0 W/m2 CLR
16:13 31.3 °C 8.9 °C 1016.5 hPa SE 3.7 km/h 3.7 km/h 25 % 0.0 mm 176.0 W/m2 CLR
16:18 31.2 °C 8.8 °C 1016.8 hPa SE 14.8 km/h 14.8 km/h 25 % 0.0 mm 167.0 W/m2 CLR
16:23 31.0 °C 9.2 °C 1016.8 hPa SE 9.3 km/h 9.3 km/h 26 % 0.0 mm 155.0 W/m2 CLR
16:28 30.9 °C 9.2 °C 1016.8 hPa SSE 13.0 km/h 13.0 km/h 26 % 0.0 mm 149.0 W/m2 CLR
16:33 30.8 °C 9.6 °C 1016.5 hPa ESE 11.1 km/h 11.1 km/h 27 % 0.0 mm 141.0 W/m2 CLR
16:38 30.7 °C 9.5 °C 1016.8 hPa SSE 11.1 km/h 11.1 km/h 27 % 0.0 mm 132.0 W/m2 CLR
16:43 30.6 °C 10.0 °C 1016.5 hPa SE 9.3 km/h 9.3 km/h 28 % 0.0 mm 121.0 W/m2 CLR
16:48 30.6 °C 10.0 °C 1016.5 hPa SSE 8.0 km/h 8.0 km/h 28 % 0.0 mm 111.0 W/m2 CLR
16:53 30.6 °C 10.6 °C 1016.5 hPa SSE 13.0 km/h 13.0 km/h 29 % 0.0 mm 100.0 W/m2 CLR
16:58 30.7 °C 10.6 °C 1016.1 hPa South 13.0 km/h 13.0 km/h 29 % 0.0 mm 91.0 W/m2 CLR
17:03 30.7 °C 10.6 °C 1016.1 hPa SE 5.6 km/h 5.6 km/h 29 % 0.0 mm 88.0 W/m2 CLR
17:08 30.7 °C 10.6 °C 1016.1 hPa SSE 3.7 km/h 3.7 km/h 29 % 0.0 mm 86.0 W/m2 CLR
17:13 30.5 °C 10.9 °C 1016.5 hPa SE 9.3 km/h 9.3 km/h 30 % 0.0 mm 67.0 W/m2 FEW
17:18 30.3 °C 10.8 °C 1015.8 hPa ESE 8.0 km/h 8.0 km/h 30 % 0.0 mm 51.0 W/m2 FEW
17:23 30.3 °C 10.8 °C 1016.1 hPa SE 11.1 km/h 11.1 km/h 30 % 0.0 mm 39.0 W/m2 SCT
17:28 30.3 °C 11.3 °C 1016.1 hPa South 7.4 km/h 7.4 km/h 31 % 0.0 mm 30.0 W/m2 BKN
17:33 30.2 °C 11.2 °C 1016.1 hPa ESE 4.8 km/h 4.8 km/h 31 % 0.0 mm 28.0 W/m2 BKN
17:38 30.1 °C 11.1 °C 1015.8 hPa ESE 16.7 km/h 16.7 km/h 31 % 0.0 mm 28.0 W/m2 BKN
17:43 30.0 °C 11.0 °C 1015.1 hPa ESE 14.8 km/h 14.8 km/h 31 % 0.0 mm 28.0 W/m2 BKN
17:48 29.8 °C 10.9 °C 1014.8 hPa East 31.5 km/h 31.5 km/h 31 % 0.0 mm 39.0 W/m2 BKN
17:53 29.7 °C 11.3 °C 1014.8 hPa East 42.6 km/h 42.6 km/h 32 % 0.0 mm 49.0 W/m2 BKN
17:58 29.9 °C 10.9 °C 1014.1 hPa SE 20.9 km/h 20.9 km/h 31 % 0.0 mm 42.0 W/m2 BKN
18:03 30.0 °C 11.0 °C 1014.1 hPa ENE 11.1 km/h 11.1 km/h 31 % 0.0 mm 40.0 W/m2 BKN
18:08 29.8 °C 11.3 °C 1014.8 hPa SE 22.2 km/h 22.2 km/h 32 % 0.0 mm 53.0 W/m2 BKN
18:13 29.6 °C 12.1 °C 1014.8 hPa South 22.2 km/h 22.2 km/h 34 % 0.0 mm 93.0 W/m2 SCT
18:18 29.3 °C 12.7 °C 1015.5 hPa South 24.1 km/h 24.1 km/h 36 % 0.0 mm 105.0 W/m2 FEW
18:23 29.1 °C 13.3 °C 1015.5 hPa SSE 22.2 km/h 22.2 km/h 38 % 0.0 mm 72.0 W/m2 CLR
18:28 28.8 °C 13.5 °C 1015.5 hPa SSE 18.5 km/h 18.5 km/h 39 % 0.0 mm 40.0 W/m2 FEW
18:33 28.7 °C 13.4 °C 1015.1 hPa SE 5.6 km/h   39 % 0.0 mm 32.0 W/m2 SCT
18:38 28.7 °C 13.0 °C 1014.8 hPa Calm     38 % 0.0 mm 32.0 W/m2 BKN
18:43 28.7 °C 13.0 °C 1014.4 hPa Calm     38 % 0.0 mm 40.0 W/m2 BKN
18:48 28.7 °C 13.3 °C 1014.4 hPa Calm     39 % 0.0 mm 47.0 W/m2 BKN
18:53 28.6 °C 14.0 °C 1013.8 hPa NNE 9.3 km/h 9.3 km/h 41 % 0.0 mm 51.0 W/m2 SCT
18:58 28.3 °C 13.8 °C 1013.8 hPa NNW 7.4 km/h 7.4 km/h 41 % 0.0 mm 84.0 W/m2 SCT
19:03 28.3 °C 12.2 °C 1013.8 hPa NE 11.1 km/h 11.1 km/h 37 % 0.0 mm 120.0 W/m2 FEW
19:08 28.5 °C 12.4 °C 1014.1 hPa Calm     37 % 0.0 mm 128.0 W/m2 CLR
19:13 28.7 °C 12.6 °C 1014.1 hPa SE 7.4 km/h 7.4 km/h 37 % 0.0 mm 120.0 W/m2 CLR
19:18 28.7 °C 12.6 °C 1013.8 hPa Calm     37 % 0.0 mm 95.0 W/m2 CLR
19:23 28.8 °C 12.2 °C 1014.4 hPa SSE 17.7 km/h 17.7 km/h 36 % 0.0 mm 70.0 W/m2 CLR
19:28 28.9 °C 11.9 °C 1014.1 hPa SSE 3.7 km/h   35 % 0.0 mm 46.0 W/m2 FEW
19:33 28.9 °C 11.4 °C 1014.4 hPa East 16.7 km/h 16.7 km/h 34 % 0.0 mm 46.0 W/m2 SCT
19:38 28.8 °C 11.8 °C 1014.1 hPa ESE 14.8 km/h 14.8 km/h 35 % 0.0 mm 63.0 W/m2 SCT
19:43 28.8 °C 11.8 °C 1014.1 hPa East 6.4 km/h 6.4 km/h 35 % 0.0 mm 116.0 W/m2 FEW
19:48 28.8 °C 12.3 °C 1014.1 hPa East 5.6 km/h 5.6 km/h 36 % 0.0 mm 225.0 W/m2 CLR
19:53 28.8 °C 12.3 °C 1013.8 hPa ESE 7.4 km/h   36 % 0.0 mm 149.0 W/m2 CLR
19:58 28.9 °C 12.4 °C 1013.8 hPa Calm     36 % 0.0 mm 246.0 W/m2 CLR
20:03 29.0 °C 12.4 °C 1013.8 hPa Calm     36 % 0.0 mm 153.0 W/m2 CLR
20:08 29.1 °C 12.1 °C 1013.8 hPa Calm     35 % 0.0 mm 114.0 W/m2 CLR
20:13 29.2 °C 12.1 °C 1013.4 hPa Calm     35 % 0.0 mm 118.0 W/m2 CLR
20:18 29.2 °C 11.7 °C 1013.4 hPa ESE 5.6 km/h 5.6 km/h 34 % 0.0 mm 105.0 W/m2 CLR
20:23 29.3 °C 11.8 °C 1013.8 hPa ESE 5.6 km/h 5.6 km/h 34 % 0.0 mm 79.0 W/m2 CLR
20:29 29.3 °C 12.3 °C 1014.1 hPa SE 6.4 km/h 6.4 km/h 35 % 0.0 mm 46.0 W/m2 FEW
20:34 29.2 °C 12.6 °C 1014.1 hPa ESE 11.1 km/h 11.1 km/h 36 % 0.0 mm 23.0 W/m2 SCT
20:39 29.1 °C 12.9 °C 1014.1 hPa ESE 3.7 km/h   37 % 0.0 mm 14.0 W/m2 BKN
20:44 29.0 °C 12.4 °C 1014.1 hPa SE 6.4 km/h 6.4 km/h 36 % 0.0 mm 14.0 W/m2 BKN
20:49 29.0 °C 12.0 °C 1013.8 hPa ESE 5.6 km/h 5.6 km/h 35 % 0.0 mm 14.0 W/m2 BKN
20:54 29.0 °C 12.0 °C 1013.8 hPa ESE 5.6 km/h   35 % 0.0 mm 12.0 W/m2 BKN
20:59 28.9 °C 11.9 °C 1013.8 hPa Calm     35 % 0.0 mm 5.0 W/m2 OVC
21:04 28.9 °C 12.3 °C 1014.1 hPa Calm     36 % 0.0 mm 0.0 W/m2 OVC
21:09 28.8 °C 11.8 °C 1014.4 hPa Calm     35 % 0.0 mm 0.0 W/m2 OVC
21:14 28.8 °C 11.8 °C 1014.4 hPa Calm     35 % 0.0 mm 0.0 W/m2 OVC
21:19 28.7 °C 12.1 °C 1013.8 hPa Calm     36 % 0.0 mm 0.0 W/m2 OVC
21:24 28.6 °C 12.0 °C 1014.1 hPa East 5.6 km/h 5.6 km/h 36 % 0.0 mm 0.0 W/m2 OVC
21:29 28.5 °C 12.4 °C 1013.8 hPa NNE 5.6 km/h 5.6 km/h 37 % 0.0 mm 0.0 W/m2 OVC
21:34 28.2 °C 12.2 °C 1014.1 hPa Calm     37 % 0.0 mm 0.0 W/m2 OVC
21:39 28.1 °C 12.4 °C 1014.1 hPa Calm     38 % 0.0 mm 0.0 W/m2 OVC
21:44 27.9 °C 12.7 °C 1014.1 hPa Calm     39 % 0.0 mm 0.0 W/m2 OVC
21:49 27.7 °C 12.5 °C 1014.1 hPa Calm     39 % 0.0 mm 0.0 W/m2 CLR
21:54 27.7 °C 12.5 °C 1014.1 hPa Calm     39 % 0.0 mm 0.0 W/m2 CLR
21:59 27.6 °C 12.8 °C 1014.1 hPa Calm     40 % 0.0 mm 0.0 W/m2 CLR
22:09 27.8 °C 12.2 °C 1013.8 hPa ENE 5.6 km/h 5.6 km/h 38 % 0.0 mm 0.0 W/m2 CLR
22:14 27.8 °C 12.6 °C 1013.4 hPa Calm     39 % 0.0 mm 0.0 W/m2 CLR
22:19 27.7 °C 13.3 °C 1013.4 hPa ENE 7.4 km/h 7.4 km/h 41 % 0.0 mm 0.0 W/m2 CLR
22:24 27.6 °C 13.5 °C 1013.8 hPa ESE 9.3 km/h 9.3 km/h 42 % 0.0 mm 0.0 W/m2 CLR
22:29 27.4 °C 13.7 °C 1014.1 hPa SE 11.1 km/h 11.1 km/h 43 % 0.0 mm 0.0 W/m2 CLR
22:34 27.4 °C 13.7 °C 1014.1 hPa SE 5.6 km/h 5.6 km/h 43 % 0.0 mm 0.0 W/m2 CLR
22:39 27.4 °C 13.8 °C 1014.1 hPa Calm     43 % 0.0 mm 0.0 W/m2 CLR
22:44 27.5 °C 13.8 °C 1013.8 hPa Calm     43 % 0.0 mm 0.0 W/m2 CLR
22:49 27.4 °C 13.8 °C 1013.8 hPa Calm     43 % 0.0 mm 0.0 W/m2 CLR
22:54 27.3 °C 14.0 °C 1013.8 hPa Calm     44 % 0.0 mm 0.0 W/m2 CLR
22:59 27.1 °C 14.2 °C 1013.8 hPa Calm     45 % 0.0 mm 0.0 W/m2 CLR
23:04 27.0 °C 14.1 °C 1013.8 hPa Calm     45 % 0.0 mm 0.0 W/m2 CLR
23:09 26.9 °C 14.0 °C 1014.1 hPa Calm     45 % 0.0 mm 0.0 W/m2 CLR
23:14 26.9 °C 14.0 °C 1014.1 hPa Calm     45 % 0.0 mm 0.0 W/m2 CLR
23:19 26.9 °C 13.9 °C 1014.1 hPa Calm     45 % 0.0 mm 0.0 W/m2 CLR
23:24 26.9 °C 13.3 °C 1014.1 hPa Calm     43 % 0.0 mm 0.0 W/m2 CLR
23:29 27.0 °C 12.6 °C 1014.1 hPa SSE 11.1 km/h 11.1 km/h 41 % 0.0 mm 0.0 W/m2 CLR
23:34 27.1 °C 12.7 °C 1014.4 hPa SSE 5.6 km/h   41 % 0.0 mm 0.0 W/m2 CLR
23:39 27.2 °C 12.4 °C 1014.8 hPa South 11.3 km/h 11.3 km/h 40 % 0.0 mm 0.0 W/m2 CLR
23:44 27.4 °C 11.1 °C 1014.8 hPa SSE 13.0 km/h 13.0 km/h 36 % 0.0 mm 0.0 W/m2 CLR
23:49 27.8 °C 10.9 °C 1014.8 hPa SE 9.3 km/h 9.3 km/h 35 % 0.0 mm 0.0 W/m2 CLR
23:54 27.9 °C 11.0 °C 1015.1 hPa SE 7.4 km/h 7.4 km/h 35 % 0.0 mm 0.0 W/m2 CLR
23:59 27.8 °C 10.9 °C 1015.1 hPa SE 9.7 km/h 9.7 km/h 35 % 0.0 mm 0.0 W/m2 CLR
Lo Temps de Massalio
Compliments of Weather Underground - 1.25 mb